Overview Statistics Trail Chart Weather Telemetry Raw packets
 

This is the latest recevied weather packets stored in our database for station/object K7CTM. If no packets are shown the sender has not sent any weather packets the latest 10 day(s).

<< 13 14 15 16 17 18 19 >>
Time Temp. Humidity Pressure Rain* Wind** Luminosity Snow
1788522227 13.89° C 46% 1019.1 hPa 0 mm - 0 W/m² -
1788521923 13.89° C 46% 1019.1 hPa 0 mm - 0 W/m² -
1788521622 13.33° C 48% 1018.9 hPa 0 mm - 0 W/m² -
1788521317 13.33° C 47% 1018.8 hPa 0 mm - 0 W/m² -
1788521013 13.89° C 46% 1018.9 hPa 0 mm - 0 W/m² -
1788520708 14.44° C 44% 1019 hPa 0 mm - 0 W/m² -
1788520404 14.44° C 44% 1019.3 hPa 0 mm - 0 W/m² -
1788520099 15° C 44% 1019 hPa 0 mm - 0 W/m² -
1788519798 14.44° C 43% 1019.1 hPa 0 mm - 0 W/m² -
1788519494 15° C 43% 1019 hPa 0 mm - 0 W/m² -
1788519194 15° C 43% 1019.1 hPa 0 mm - 0 W/m² -
1788518889 14.44° C 44% 1019.1 hPa 0 mm - 0 W/m² -
1788518584 14.44° C 44% 1019 hPa 0 mm - 0 W/m² -
1788518282 13.89° C 45% 1019.1 hPa 0 mm - 0 W/m² -
1788517981 13.89° C 47% 1019.1 hPa 0 mm - 0 W/m² -
1788517676 13.89° C 45% 1019 hPa 0 mm - 0 W/m² -
1788517372 13.89° C 46% 1018.9 hPa 0 mm - 0 W/m² -
1788517068 14.44° C 44% 1019.3 hPa 0 mm - 0 W/m² -
1788516764 15° C 43% 1019.1 hPa 0 mm - 0 W/m² -
1788516459 15.56° C 41% 1018.9 hPa 0 mm - 0 W/m² -
1788516155 16.11° C 40% 1019.1 hPa 0 mm - 0 W/m² -
1788515855 16.11° C 40% 1019.1 hPa 0 mm - 0 W/m² -
1788515550 16.67° C 39% 1018.9 hPa 0 mm - 0 W/m² -
1788515245 16.67° C 39% 1019.1 hPa 0 mm - 0 W/m² -
1788514945 15.56° C 41% 1019 hPa 0 mm - 0 W/m² -

* Rain latest hour (hover to see other rain measurements)
** Current wind speed in m/s (hover to see current wind gust speed)